| time (UTC) | temp F | wind direction | speed knots | gust knots | rain 1hr in | rain 24hr in | rain mn in | humidity % | barometer mb |
| 20260904023114 | 54 | 164 | 0.9 | 2.6 | 0.00 | 0.21 | 0.19 | 87 | 1009.8 |
| 20260904021557 | 54 | 138 | 0.9 | 2.6 | 0.00 | 0.21 | 0.19 | 87 | 1009.8 |
| 20260904020052 | 54 | 150 | 0.0 | 1.7 | 0.00 | 0.21 | 0.19 | 87 | 1009.8 |
| 20260904014602 | 54 | 155 | 0.0 | 3.5 | 0.00 | 0.21 | 0.19 | 87 | 1009.7 |
| 20260904013126 | 54 | 157 | 1.7 | 6.1 | 0.00 | 0.21 | 0.19 | 88 | 1009.9 |
| 20260904011601 | 54 | 136 | 3.5 | 7.0 | 0.00 | 0.21 | 0.19 | 88 | 1010.0 |
| 20260904010101 | 54 | 159 | 1.7 | 3.5 | 0.00 | 0.21 | 0.19 | 87 | 1009.9 |
| 20260904004603 | 55 | 166 | 1.7 | 5.2 | 0.00 | 0.21 | 0.19 | 85 | 1009.8 |
| 20260904003101 | 55 | 219 | 1.7 | 6.1 | 0.00 | 0.21 | 0.19 | 84 | 1009.7 |
| 20260904001609 | 55 | 205 | 3.5 | 7.8 | 0.03 | 0.21 | 0.19 | 87 | 1010.0 |
| 20260903234556 | 54 | 180 | 2.6 | 6.1 | 0.04 | 0.25 | 0.19 | 88 | 1009.9 |
| 20260903233106 | 53 | 178 | 2.6 | 7.8 | 0.06 | 0.25 | 0.19 | 88 | 1010.0 |
| 20260903231609 | 53 | 263 | 2.6 | 9.6 | 0.03 | 0.22 | 0.16 | 87 | 1010.2 |
| 20260903230057 | 53 | 265 | 2.6 | 10.4 | 0.02 | 0.21 | 0.15 | 86 | 1010.5 |
| 20260903224604 | 56 | 0 | 1.7 | 7.0 | 0.02 | 0.21 | 0.15 | 83 | 1010.4 |
| 20260903223112 | 58 | 198 | 1.7 | 5.2 | 0.00 | 0.19 | 0.13 | 76 | 1010.3 |
| 20260903221555 | 58 | 187 | 3.5 | 7.0 | 0.00 | 0.19 | 0.13 | 75 | 1010.1 |
| 20260903214600 | 57 | 182 | 4.3 | 11.3 | 0.00 | 0.20 | 0.13 | 77 | 1010.0 |
| 20260903213112 | 57 | 200 | 5.2 | 13.9 | 0.00 | 0.20 | 0.13 | 77 | 1010.2 |
| 20260903211605 | 57 | 192 | 7.0 | 14.8 | 0.00 | 0.20 | 0.13 | 77 | 1010.3 |
| 20260903204600 | 58 | 207 | 5.2 | 11.3 | 0.00 | 0.26 | 0.13 | 80 | 1010.1 |
| 20260903203059 | 58 | 181 | 6.1 | 14.8 | 0.00 | 0.26 | 0.13 | 80 | 1010.1 |
| 20260903201558 | 58 | 156 | 5.2 | 13.0 | 0.00 | 0.26 | 0.13 | 82 | 1010.1 |
| 20260903200104 | 57 | 209 | 6.1 | 15.6 | 0.00 | 0.26 | 0.13 | 82 | 1010.1 |
| 20260903194601 | 57 | 181 | 6.1 | 16.5 | 0.01 | 0.42 | 0.13 | 82 | 1010.1 |
| 20260903193101 | 58 | 197 | 7.0 | 13.9 | 0.01 | 0.42 | 0.13 | 83 | 1010.1 |
| 20260903191602 | 56 | 188 | 5.2 | 16.5 | 0.02 | 0.42 | 0.13 | 87 | 1010.4 |
| 20260903190106 | 55 | 210 | 6.1 | 14.8 | 0.02 | 0.42 | 0.13 | 88 | 1010.4 |
| 20260903184609 | 55 | 173 | 7.8 | 16.5 | 0.01 | 0.47 | 0.12 | 86 | 1010.4 |
| 20260903183106 | 55 | 202 | 5.2 | 13.9 | 0.01 | 0.47 | 0.12 | 87 | 1010.4 |
| 20260903181603 | 57 | 196 | 2.6 | 5.2 | 0.00 | 0.46 | 0.11 | 84 | 1010.3 |
| 20260903180109 | 58 | 196 | 5.2 | 12.2 | 0.00 | 0.46 | 0.11 | 83 | 1010.3 |
| 20260903174603 | 57 | 175 | 4.3 | 10.4 | 0.00 | 0.51 | 0.11 | 85 | 1010.2 |
| 20260903173108 | 57 | 198 | 3.5 | 9.6 | 0.00 | 0.51 | 0.11 | 84 | 1010.1 |
| 20260903171602 | 56 | 140 | 3.5 | 7.0 | 0.00 | 0.51 | 0.11 | 88 | 1010.2 |
| 20260903170058 | 55 | 192 | 4.3 | 8.7 | 0.00 | 0.51 | 0.11 | 88 | 1010.3 |
| 20260903164604 | 54 | 160 | 4.3 | 7.8 | 0.00 | 0.51 | 0.11 | 88 | 1010.5 |
| 20260903163135 | 54 | 178 | 4.3 | 7.8 | 0.01 | 0.51 | 0.11 | 90 | 1010.4 |
| 20260903161601 | 53 | 191 | 3.5 | 6.1 | 0.02 | 0.51 | 0.11 | 92 | 1010.4 |
| 20260903160100 | 52 | 178 | 1.7 | 4.3 | 0.02 | 0.51 | 0.11 | 92 | 1010.4 |
| 20260903154607 | 52 | 214 | 3.5 | 7.8 | 0.03 | 0.51 | 0.11 | 92 | 1010.4 |
| 20260903153103 | 52 | 172 | 3.5 | 9.6 | 0.03 | 0.50 | 0.10 | 92 | 1010.4 |
| 20260903151604 | 52 | 197 | 7.0 | 13.0 | 0.04 | 0.49 | 0.09 | 92 | 1010.3 |
| 20260903150105 | 52 | 176 | 5.2 | 13.0 | 0.04 | 0.49 | 0.09 | 92 | 1010.2 |
| 20260903144559 | 52 | 173 | 7.0 | 12.2 | 0.04 | 0.48 | 0.08 | 92 | 1010.2 |
| 20260903143057 | 52 | 183 | 5.2 | 17.4 | 0.04 | 0.47 | 0.07 | 91 | 1010.1 |
| 20260903141604 | 52 | 200 | 6.1 | 13.0 | 0.02 | 0.45 | 0.05 | 90 | 1009.9 |
| 20260903140105 | 52 | 192 | 7.0 | 12.2 | 0.02 | 0.45 | 0.05 | 90 | 1009.7 |
| 20260903134628 | 52 | 177 | 5.2 | 10.4 | 0.01 | 0.44 | 0.04 | 90 | 1009.8 |
| 20260903133109 | 52 | 181 | 6.1 | 10.4 | 0.00 | 0.43 | 0.03 | 90 | 1009.8 |
| 20260903131608 | 52 | 186 | 7.0 | 11.3 | 0.00 | 0.43 | 0.03 | 89 | 1009.4 |
| 20260903130108 | 52 | 186 | 5.2 | 10.4 | 0.00 | 0.43 | 0.03 | 89 | 1009.7 |
| 20260903124610 | 52 | 165 | 6.1 | 12.2 | 0.00 | 0.43 | 0.03 | 89 | 1009.6 |
| 20260903123110 | 52 | 180 | 6.1 | 11.3 | 0.00 | 0.43 | 0.03 | 89 | 1009.7 |
| 20260903121603 | 52 | 194 | 6.1 | 13.0 | 0.00 | 0.43 | 0.03 | 89 | 1009.7 |
| 20260903120130 | 51 | 161 | 6.1 | 10.4 | 0.00 | 0.43 | 0.03 | 90 | 1009.8 |
| 20260903114608 | 51 | 206 | 6.1 | 12.2 | 0.00 | 0.43 | 0.03 | 90 | 1009.7 |
| 20260903113107 | 51 | 181 | 5.2 | 12.2 | 0.00 | 0.43 | 0.03 | 90 | 1009.7 |
| 20260903111602 | 51 | 159 | 6.1 | 11.3 | 0.00 | 0.43 | 0.03 | 90 | 1009.6 |
| 20260903110105 | 52 | 179 | 5.2 | 12.2 | 0.00 | 0.43 | 0.03 | 90 | 1009.7 |
| 20260903104556 | 52 | 239 | 7.0 | 14.8 | 0.00 | 0.43 | 0.03 | 91 | 1009.7 |
| 20260903103104 | 52 | 182 | 6.1 | 12.2 | 0.00 | 0.43 | 0.03 | 91 | 1010.0 |
| 20260903101601 | 52 | 186 | 7.0 | 15.6 | 0.00 | 0.43 | 0.03 | 91 | 1009.6 |
| 20260903100105 | 52 | 188 | 6.1 | 12.2 | 0.00 | 0.43 | 0.03 | 91 | 1009.6 |
| 20260903094603 | 52 | 175 | 6.1 | 14.8 | 0.00 | 0.43 | 0.03 | 91 | 1009.6 |
| 20260903093107 | 52 | 177 | 6.1 | 11.3 | 0.02 | 0.43 | 0.03 | 91 | 1009.6 |
| 20260903091601 | 52 | 198 | 6.1 | 15.6 | 0.02 | 0.43 | 0.03 | 92 | 1009.7 |
| 20260903084558 | 52 | 211 | 5.2 | 12.2 | 0.02 | 0.43 | 0.03 | 92 | 1009.8 |
| 20260903083056 | 52 | 190 | 5.2 | 13.9 | 0.01 | 0.41 | 0.01 | 93 | 1009.9 |
| 20260903081601 | 52 | 184 | 5.2 | 13.9 | 0.01 | 0.41 | 0.01 | 93 | 1009.9 |
| 20260903080103 | 52 | 175 | 7.0 | 13.0 | 0.01 | 0.41 | 0.01 | 93 | 1009.9 |
| 20260903074627 | 52 | 197 | 7.0 | 13.9 | 0.02 | 0.41 | 0.01 | 93 | 1009.9 |
| 20260903073115 | 52 | 224 | 7.0 | 17.4 | 0.01 | 0.40 | 0.00 | 93 | 1009.9 |
| 20260903071607 | 52 | 208 | 6.1 | 13.9 | 0.01 | 0.40 | 0.00 | 93 | 1009.8 |
| 20260903070115 | 52 | 213 | 8.7 | 14.8 | 0.01 | 0.40 | 0.00 | 93 | 1009.8 |
| 20260903064555 | 53 | 182 | 8.7 | 13.9 | 0.00 | 0.39 | 0.39 | 92 | 1009.8 |
| 20260903063105 | 53 | 184 | 7.0 | 15.6 | 0.00 | 0.39 | 0.39 | 92 | 1009.8 |
| 20260903061611 | 53 | 215 | 6.1 | 13.0 | 0.00 | 0.39 | 0.39 | 92 | 1009.7 |
| 20260903060100 | 53 | 184 | 4.3 | 15.6 | 0.00 | 0.39 | 0.39 | 92 | 1009.7 |
| 20260903054603 | 53 | 183 | 6.1 | 12.2 | 0.00 | 0.39 | 0.39 | 92 | 1009.7 |
| 20260903053101 | 53 | 196 | 7.0 | 18.2 | 0.00 | 0.39 | 0.39 | 92 | 1010.0 |
| 20260903051603 | 53 | 194 | 3.5 | 13.0 | 0.00 | 0.39 | 0.39 | 92 | 1009.8 |
| 20260903050111 | 53 | 181 | 5.2 | 11.3 | 0.00 | 0.39 | 0.39 | 93 | 1009.8 |
| 20260903044605 | 53 | 231 | 4.3 | 12.2 | 0.00 | 0.39 | 0.39 | 93 | 1009.8 |
| 20260903043103 | 53 | 166 | 5.2 | 9.6 | 0.00 | 0.39 | 0.39 | 93 | 1009.6 |
| 20260903041616 | 54 | 200 | 5.2 | 12.2 | 0.00 | 0.39 | 0.39 | 93 | 1009.5 |
| 20260903040106 | 54 | 194 | 5.2 | 13.0 | 0.01 | 0.39 | 0.39 | 93 | 1009.4 |
| 20260903034600 | 54 | 205 | 5.2 | 7.8 | 0.01 | 0.39 | 0.39 | 93 | 1009.2 |
| 20260903033101 | 54 | 190 | 5.2 | 11.3 | 0.01 | 0.39 | 0.39 | 93 | 1009.0 |
| 20260903031611 | 55 | 177 | 4.3 | 12.2 | 0.01 | 0.39 | 0.39 | 93 | 1008.9 |
| 20260903030054 | 55 | 221 | 5.2 | 9.6 | 0.00 | 0.38 | 0.38 | 93 | 1009.0 |
| 20260903024600 | 55 | 198 | 6.1 | 9.6 | 0.00 | 0.38 | 0.38 | 93 | 1008.6 |